Regional Weather Roundup
Issued by NWS

Home | Current Version | Previous Version | Text Only | Print | Product List | Glossary Off
Versions: 1 2 3 4 5 6 7 8 9 10 11 12 13 14 15 16 17 18 19 20 21 22 23 24 25 26 27 28 29 30 31 32 33 34 35 36 37 38 39 40 41 42 43 44 45 46 47 48 49 50

000
ASUS43 KIND 271409
RWRIN

WEATHER ROUNDUP FOR INDIANA
NATIONAL WEATHER SERVICE INDIANAPOLIS IN
1000 AM EDT FRI MAR 27 2015

NOTE: "FAIR" INDICATES FEW OR NO CLOUDS BELOW 12,000 FEET WITH NO
SIGNIFICANT WEATHER AND/OR OBSTRUCTIONS TO VISIBILITY.

* - STATION DOES NOT REPORT WEATHER SUCH AS PRECIPITATION OR FOG.

+ - STATION NOT QUALITY CONTROLLED BY THE NATIONAL WEATHER SERVICE.
    USE DATA WITH CAUTION...ESPECIALLY DEWPOINT AND RELATIVE
    HUMIDITY OBSERVATIONS.

INZ001>003-010>013-019-020-271500-
NORTHWEST INDIANA

CITY           SKY/WX    TMP DP  RH WIND       PRES   REMARKS
GARY /AIRPORT/ CLOUDY    28  12  50 N18G31    30.14R WCI  16
KNOX *+          N/A     27  10  50 N10       30.09S WCI  17
LA PORTE +     PTSUNNY   28  17  61 N22       30.09S WCI  15
MICHIGAN CITY+ PTSUNNY   28   9  43 N18G25    30.10S WCI  16
MONTICELLO +   CLOUDY    28  19  70 N13       30.08R WCI  17
RENSSELAER +   LGT SNOW  28  27  93 N9        30.10S WCI  20
VALPARAISO     CLOUDY    26  16  65 N10G20    30.10S WCI  16

$$

LMZ046-743>745-271500-
SOUTHERN LAKE MICHIGAN

STATION/POSITION TIME  TEMP WIND        PRES
                       AIR  DIR/SP/G
                 (UTC) (F)  (DEG/KT/KT) (MB)
BURNS HARBOR     1400   27  350/ 20/ 25 1020.0S
MICHIGAN CITY    1400   26  330/ 26/ 30   N/A

$$

INZ004-005-014>016-021>024-271500-
NORTH CENTRAL INDIANA

CITY           SKY/WX    TMP DP  RH WIND       PRES   REMARKS
ELKHART        PTSUNNY   25   9  50 N9        30.08S WCI  15
GOSHEN         PTSUNNY   25  12  58 N16       30.06S WCI  12
LOGANSPORT +   CLOUDY    28  19  69 N12       30.08R WCI  18
PERU/GRISSOM   CLOUDY    29  17  60 N16       30.04S WCI  18
ROCHESTER +    MOSUNNY   30  18  59 N14       30.08R WCI  20
SOUTH BEND     CLOUDY    26  16  65 N12       30.08S WCI  16
WARSAW +       MOSUNNY   27  14  59 N15G21    30.06S WCI  15

$$

INZ006>009-017-018-025>027-271500-
NORTHEAST INDIANA

CITY           SKY/WX    TMP DP  RH WIND       PRES   REMARKS
ANGOLA *+      PTSUNNY   21  10  63 N8        30.03S WCI  12
AUBURN +       PTSUNNY   27  12  54 N14G21    30.05S WCI  15
FORT WAYNE     MOSUNNY   28  14  55 N16G22    30.05S WCI  16
HUNTINGTON +   MOSUNNY   28  10  46 N12       30.05S WCI  18

$$

INZ028-029-035-036-043>045-051>053-271500-
WEST CENTRAL INDIANA

CITY           SKY/WX    TMP DP  RH WIND       PRES   REMARKS
CRAWFORDSVL +  CLOUDY    28  17  65 MISG      30.07S
GREENCASTLE +  PTSUNNY   30  21  69 N10       30.06S WCI  21
LAFAYETTE      FLURRIES  28  20  71 N9        30.09R WCI  19
TERRE HAUTE    CLOUDY    32  25  75 N9        30.09R WCI  24

$$

INZ030>032-037>040-046>048-054>057-064-065-271500-
CENTRAL INDIANA

CITY           SKY/WX    TMP DP  RH WIND       PRES   REMARKS
ANDERSON       MOSUNNY   30  21  69 N12G17    30.04R WCI  21
CP ATTERBURY + CLOUDY    34  27  75 N12       30.05R WCI  25
COLUMBUS       PTSUNNY   32  25  74 N12G17    30.05R WCI  23
FISHERS *+     MOSUNNY   30  21  69 N9        30.05R WCI  22
FRANKFORT +    PTSUNNY   29  24  79 NW10      30.08R WCI  20
GREENWOOD *+   PTSUNNY   32  21  64 N9        30.04R WCI  24
INDIANAPOLIS   PTSUNNY   32  22  66 N12       30.03R WCI  23
-EAGLE CREEK   PTSUNNY   31  23  72 N10       30.04S WCI  22
KOKOMO *+        N/A     30  19  64 N12       30.05S WCI  21
MARION +       PTSUNNY   28  19  68 N16G22    30.05R WCI  16
MT COMFORT *+  MOSUNNY   32  18  55 N13       30.04R WCI  22
SHELBYVILLE    MOSUNNY   34  24  67 N13       30.03S WCI  25
ZIONSVILLE +   MOSUNNY   31  20  62 N16       30.05R WCI  20

$$

INZ033-034-041-042-049-050-058-059-271500-
EAST CENTRAL INDIANA

CITY           SKY/WX    TMP DP  RH WIND       PRES   REMARKS
MUNCIE         CLOUDY    29  21  72 N14       30.03R WCI  18

$$

INZ060-061-067>069-081>083-085>088-271500-
SOUTHWEST INDIANA

CITY           SKY/WX    TMP DP  RH WIND       PRES   REMARKS
EVANSVILLE     PTSUNNY   39  30  70 N10       30.06R
HUNTINGBURG *+ PTSUNNY   36  28  75 N9        30.05R
WASHINGTON +   PTSUNNY   35  28  76 N14       30.06S WCI  25

$$

INZ062-063-066-070>080-084-089>092-271500-
SOUTH CENTRAL AND SOUTHEAST INDIANA

CITY           SKY/WX    TMP DP  RH WIND       PRES   REMARKS
BEDFORD +      PTSUNNY   36  27  69 N9        30.04R
BLOOMINGTON    CLOUDY    34  27  75 N8        30.04R WCI  27
NORTH VERNON + SUNNY     34  28  80 N9        30.03R WCI  26
SEYMOUR +      MOSUNNY   37  27  65 N12       30.04R

$$




USA.gov is the U.S. government's official web portal to all federal, state and local government web resources and services.